FW7196 Weather Reports


Display with metric or nautical units.
time (UTC)temp
F
wind
direction
speed
MPH
gust
MPH
rain 1hr
in
rain 24hr
in
rain mn
in
humidity
%
barometer
mb
20260507044535 43 0 0.0 0.0 0.00 0.80 0.00 95 1007.3
20260507043035 44 0 0.0 0.0 0.00 0.80 0.00 95 1007.2
20260507041537 44 0 0.0 0.0 0.00 0.80 0.00 95 1007.4
20260507040038 44 0 0.0 0.0 0.00 0.80 0.00 96 1007.6
20260507034538 44 0 0.0 1.0 0.01 0.80 0.80 96 1007.1
20260507033035 44 0 0.0 0.0 0.02 0.80 0.80 95 1007.5
20260507031535 44 0 0.0 0.0 0.02 0.80 0.80 95 1007.5
20260507030037 44 0 0.0 2.0 0.04 0.80 0.80 95 1007.5
20260507024535 44 0 0.0 2.0 0.04 0.79 0.79 95 1007.6
20260507023042 44 353 1.0 5.0 0.04 0.78 0.78 95 1007.9
20260507021541 45 343 0.0 2.0 0.06 0.78 0.78 95 1007.8
20260507020036 45 0 0.0 2.0 0.06 0.76 0.76 95 1007.8
20260507014545 45 0 0.0 2.0 0.07 0.75 0.75 95 1007.8
20260507013036 46 0 0.0 0.0 0.08 0.74 0.74 95 1007.5
20260507011539 46 0 0.0 2.0 0.07 0.72 0.72 95 1007.4
20260507010051 46 0 0.0 4.0 0.05 0.70 0.70 95 1007.2
20260507004537 47 0 0.0 2.0 0.03 0.68 0.68 95 1006.9
20260507003035 48 0 0.0 2.0 0.02 0.66 0.66 95 1006.8
20260507001537 48 0 0.0 3.0 0.01 0.65 0.65 94 1006.5
20260507000036 49 0 0.0 1.0 0.03 0.65 0.65 95 1006.0
20260506234534 49 0 0.0 0.0 0.06 0.65 0.65 95 1005.8
20260506233037 49 0 0.0 0.0 0.05 0.64 0.64 94 1005.5
20260506231538 50 0 0.0 0.0 0.05 0.64 0.64 94 1005.4
20260506230052 50 0 0.0 2.0 0.03 0.62 0.62 93 1005.2
20260506224539 51 0 0.0 4.0 0.00 0.58 0.58 93 1004.9
20260506223035 54 0 0.0 4.0 0.01 0.58 0.58 92 1004.5
20260506221541 58 0 0.0 4.0 0.12 0.58 0.58 95 1004.1
20260506220043 58 102 0.0 3.0 0.23 0.58 0.58 95 1004.1
20260506214538 58 122 0.0 5.0 0.28 0.65 0.58 95 1003.9
20260506213039 58 0 0.0 5.0 0.28 0.63 0.57 95 1003.8
20260506211536 58 0 1.0 6.0 0.18 0.52 0.46 95 1003.9
20260506210042 58 251 2.0 6.0 0.09 0.42 0.36 95 1003.7
20260506204538 59 0 1.0 7.0 0.04 0.41 0.31 95 1003.8
20260506203036 59 141 1.0 7.0 0.03 0.39 0.29 95 1003.9
20260506201542 59 135 0.0 6.0 0.03 0.38 0.28 95 1004.0
20260506200037 59 0 0.0 5.0 0.03 0.37 0.27 95 1004.1
20260506194535 59 141 1.0 9.0 0.04 0.37 0.27 95 1004.0
20260506193035 59 152 0.0 5.0 0.05 0.36 0.26 95 1004.3
20260506191535 58 130 0.0 6.0 0.05 0.35 0.25 95 1004.6
20260506190036 58 155 1.0 4.0 0.06 0.34 0.24 95 1004.8
20260506184538 58 0 0.0 3.0 0.08 0.33 0.23 95 1004.9
20260506183039 58 0 0.0 7.0 0.08 0.31 0.21 95 1004.9
20260506181538 58 138 0.0 8.0 0.10 0.30 0.20 94 1004.9
20260506180040 58 0 1.0 6.0 0.11 0.28 0.18 94 1005.2
20260506174537 58 160 1.0 6.0 0.10 0.25 0.15 94 1005.5
20260506173041 59 0 1.0 6.0 0.10 0.23 0.13 93 1005.4
20260506171550 59 0 0.0 0.0 0.07 0.19 0.09 94 1005.9
20260506170038 59 0 0.0 2.0 0.06 0.17 0.07 93 1005.8
20260506164535 59 0 0.0 2.0 0.04 0.15 0.05 93 1005.9
20260506163111 59 0 0.0 0.0 0.03 0.13 0.03 93 1006.2
20260506161537 59 0 0.0 2.0 0.02 0.12 0.02 92 1006.4
20260506160045 59 0 0.0 2.0 0.01 0.11 0.01 91 1006.5
20260506154539 59 0 0.0 2.0 0.01 0.11 0.01 90 1006.8
20260506153035 59 0 0.0 4.0 0.00 0.10 0.00 87 1007.3
20260506151540 60 0 0.0 6.0 0.00 0.10 0.00 86 1007.6
20260506150035 59 104 1.0 7.0 0.00 0.10 0.00 84 1007.7
20260506144553 60 0 1.0 6.0 0.00 0.10 0.00 83 1007.3
20260506143852 60 171 0.0 3.0 0.00 0.09 0.00 83 1007.3
20260506143036 59 60 0.0 4.0 0.00 0.10 0.00 83 1007.2
20260506142105 60 103 0.0 1.0 0.00 0.09 0.00 84 1007.4
20260506141552 60 129 0.0 2.0 0.00 0.09 0.00 84 1007.4
20260506141537 59 89 0.0 4.0 0.00 0.10 0.00 85 1007.4
20260506141059 59 87 0.0 0.0 0.00 0.09 0.00 85 1007.4
20260506140545 59 99 1.0 3.0 0.00 0.09 0.00 85 1007.4
20260506140038 59 133 1.0 4.0 0.00 0.09 0.00 85 1007.3
20260506135533 59 90 1.0 4.0 0.00 0.09 0.00 85 1007.4
20260506135021 59 194 0.0 4.0 0.00 0.09 0.00 86 1007.3
20260506134535 58 99 0.0 5.0 0.00 0.10 0.00 86 1007.3
20260506134513 58 256 0.0 4.0 0.00 0.09 0.00 86 1007.3
20260506134017 58 256 0.0 1.0 0.00 0.09 0.00 86 1007.3
20260506133524 58 102 1.0 6.0 0.00 0.09 0.00 86 1007.2
20260506133036 58 65 1.0 7.0 0.00 0.10 0.00 86 1007.3
20260506133009 58 80 0.0 6.0 0.00 0.09 0.00 86 1007.3
20260506132507 58 53 0.0 6.0 0.00 0.09 0.00 86 1007.2
20260506131948 58 100 0.0 0.0 0.00 0.09 0.00 87 1007.5
20260506131543 57 0 0.0 6.0 0.00 0.10 0.00 86 1007.7
20260506131438 58 89 1.0 4.0 0.00 0.09 0.00 86 1007.7
20260506130938 58 126 1.0 7.0 0.00 0.09 0.00 86 1007.8
20260506130037 57 132 0.0 10.0 0.00 0.10 0.00 87 1008.0
20260506125752 58 106 1.0 7.0 0.00 0.09 0.00 86 1007.9
20260506125242 57 114 0.0 4.0 0.00 0.09 0.00 87 1008.0
20260506124537 57 249 1.0 5.0 0.00 0.10 0.00 87 1008.1
20260506124101 57 194 0.0 1.0 0.00 0.09 0.00 87 1007.8
20260506123543 57 68 0.0 2.0 0.00 0.09 0.00 87 1007.5
20260506123051 57 54 0.0 0.0 0.00 0.09 0.00 87 1007.4
20260506123036 56 0 1.0 6.0 0.00 0.10 0.00 87 1007.4
20260506122554 57 47 0.0 3.0 0.00 0.09 0.00 87 1007.9
20260506122036 57 51 0.0 0.0 0.00 0.09 0.00 87 1007.7
20260506121534 56 136 1.0 7.0 0.00 0.10 0.00 87 1007.6
20260506120912 57 113 1.0 3.0 0.00 0.09 0.00 87 1007.6
20260506120412 57 90 1.0 8.0 0.00 0.09 0.00 87 1007.7
20260506120035 56 0 1.0 7.0 0.00 0.10 0.00 88 1007.7
20260506114541 56 0 0.0 7.0 0.00 0.10 0.00 87 1007.9
20260506113035 55 50 1.0 6.0 0.00 0.10 0.00 90 1008.0
20260506111536 54 0 0.0 2.0 0.00 0.10 0.00 92 1007.9
20260506110039 53 0 0.0 0.0 0.00 0.10 0.00 92 1008.1
20260506104540 53 0 0.0 0.0 0.00 0.10 0.00 92 1008.0
20260506103039 52 0 0.0 0.0 0.00 0.10 0.00 92 1007.9
20260506101537 52 0 0.0 0.0 0.00 0.10 0.00 92 1008.0
20260506100039 52 0 0.0 0.0 0.00 0.10 0.00 91 1008.0
20260506094540 52 0 0.0 0.0 0.00 0.10 0.00 90 1007.9
20260506093035 53 0 0.0 0.0 0.00 0.10 0.00 89 1007.8
20260506091537 53 0 0.0 0.0 0.00 0.10 0.00 90 1007.8
20260506090036 53 0 0.0 0.0 0.00 0.10 0.00 90 1007.9
20260506084540 54 0 0.0 0.0 0.00 0.10 0.00 89 1007.9
20260506083034 54 0 0.0 0.0 0.00 0.10 0.00 89 1008.1
20260506081536 54 0 0.0 0.0 0.00 0.10 0.00 88 1008.4
20260506073037 56 34 0.0 2.0 0.00 0.10 0.00 87 1008.3
20260506071535 56 0 0.0 0.0 0.00 0.10 0.00 86 1008.4
20260506061535 58 0 0.0 2.0 0.00 0.10 0.00 85 1008.2